Location: Unspecified
(0.0000°N, 0.0000°E)
Time: 03:53:05
(UTC+02:00)

Resurs 01 Rocket - Visible Passes

Search period start: 29 August 2016 00:00
Search period end: 08 September 2016 00:00
Orbit: 636 x 644 km, 98.2° (Epoch: 28 August)

Date Brightness Start Highest point End Pass type
(mag) Time Alt. Az. Time Alt. Az. Time Alt. Az.
29 Aug 2.7 21:46:35 18° SSW 21:49:31 43° WSW 21:53:43 10° NNW visible
30 Aug 3.1 20:33:47 10° ESE 20:36:38 17° ENE 20:39:27 10° NE visible
30 Aug 4.0 22:10:16 13° SW 22:12:49 21° WSW 22:16:07 10° NW visible
31 Aug 2.2 20:56:23 13° SE 20:59:55 35° ENE 21:03:56 10° NNE visible
01 Sep 1.5 21:20:04 19° SSE 21:23:14 77° ENE 21:27:38 10° N visible
02 Sep 2.5 21:43:46 20° SSW 21:46:32 48° WSW 21:50:48 10° NNW visible
03 Sep 3.2 20:31:05 10° ESE 20:33:38 15° ENE 20:36:10 10° NE visible
03 Sep 3.8 22:07:28 15° SW 22:09:50 23° WSW 22:13:19 10° NW visible
04 Sep 2.3 20:53:36 13° SE 20:56:55 31° ENE 21:00:50 10° NNE visible
04 Sep 4.7 22:32:00 10° WSW 22:33:07 11° WSW 22:34:14 10° W visible
05 Sep 1.5 21:17:19 21° SSE 21:20:14 68° ENE 21:24:38 10° N visible
06 Sep 2.2 21:41:01 24° S 21:43:32 54° WSW 21:47:51 10° NNW visible
07 Sep 3.3 20:28:27 10° ESE 20:30:38 14° ENE 20:32:49 10° NE visible
07 Sep 3.7 22:04:44 18° SW 22:06:51 26° WSW 22:10:29 10° NW visible
